GFSNE_850_spd_192.txt.gz
Wind_Speed
9 10 7 6 7 8 9 8 9 8 12 6 4 11 15 13 14 18 19 19 21 23 26 29 28 26 26 26 24 23 24 26 28 30 31 30 29 31
10 10 8 5 5 5 6 5 6 9 9 8 8 10 14 14 12 18 20 20 17 20 23 27 30 28 28 28 26 26 25 25 26 28 30 31 31 31
9 8 9 10 5 5 6 4 5 4 4 4 6 9 12 14 18 19 21 17 19 21 21 28 28 28 27 31 32 30 28 27 28 27 28 30 31 29
10 8 9 6 5 7 5 3 2 2 4 6 7 10 12 14 16 20 21 22 24 22 25 27 27 26 28 30 27 26 29 28 26 29 30 30 31 35
10 9 12 11 11 9 6 5 4 1 2 6 8 8 10 13 18 19 21 23 25 28 27 27 29 29 28 31 29 29 24 24 29 33 34 34 36 36
14 13 12 11 7 7 8 2 1 0 2 2 4 7 10 14 19 22 25 27 31 31 30 32 31 31 32 33 34 34 30 27 31 35 42 40 36 35
12 10 7 6 5 4 1 1 1 1 2 3 5 8 11 18 21 24 28 33 34 30 35 35 34 36 36 37 37 33 31 38 41 41 36 29 27 27
12 7 6 6 6 4 1 1 2 3 4 6 8 10 14 19 23 27 30 33 38 34 37 39 38 39 40 37 34 39 41 37 32 28 28 30 31 33
9 6 7 3 2 1 3 3 5 7 9 9 10 15 19 22 26 27 26 28 31 33 34 42 40 41 36 38 43 41 31 22 33 32 33 36 35 36
14 13 9 6 2 0 2 2 2 4 8 12 16 18 20 21 21 24 25 28 29 31 30 41 36 38 45 46 39 24 18 35 42 37 37 37 38 38
15 13 12 4 1 1 2 3 3 2 10 14 17 18 19 19 17 21 24 25 32 35 32 22 37 50 51 42 29 12 31 44 39 39 40 40 39 39
11 10 8 4 2 4 5 5 6 9 12 15 15 14 16 16 15 16 20 24 29 32 24 36 39 40 37 39 26 46 49 47 46 43 40 40 38 37
10 8 7 4 4 6 7 8 10 12 14 16 16 17 16 17 20 21 22 25 27 28 33 30 38 35 30 46 46 50 50 52 50 45 39 37 37 34
10 8 3 4 5 8 10 10 12 13 13 15 17 17 15 22 25 23 23 24 25 30 32 29 32 33 38 45 49 53 53 51 46 43 43 45 44 42
8 6 5 6 7 10 11 12 12 12 14 16 17 15 21 25 23 25 25 26 29 29 26 25 29 33 36 42 50 53 55 51 40 41 48 49 48 47
9 7 7 8 9 10 11 12 14 15 15 16 17 21 26 23 24 26 27 30 33 31 29 29 29 30 37 39 44 48 48 46 51 45 52 53 47 45
7 7 8 7 8 9 10 11 12 14 16 15 20 26 23 24 28 26 28 30 30 35 38 37 35 35 34 34 38 43 49 50 53 56 53 54 51 48
7 8 6 6 8 10 11 12 13 14 16 20 23 21 24 29 28 28 28 29 31 35 40 40 41 42 38 34 29 38 47 54 56 54 51 51 53 51
10 9 7 9 12 12 12 14 15 16 19 19 19 23 28 25 28 28 31 30 35 39 39 40 39 35 40 43 41 37 47 54 55 52 47 50 56 60
11 10 10 11 12 14 14 16 17 19 18 20 22 24 25 27 29 30 30 34 38 38 40 38 36 35 37 47 55 54 40 44 47 56 57 55 59 61
8 7 12 13 15 16 16 18 18 18 18 20 23 25 27 28 28 29 35 35 34 37 38 39 41 40 42 44 49 53 53 42 37 45 55 56 56 64
12 13 14 15 17 18 18 17 17 18 20 23 25 26 26 26 30 34 33 34 36 37 40 41 43 40 42 42 47 51 55 55 51 47 42 43 48 52
11 13 15 17 19 20 16 18 21 23 23 23 24 24 27 31 32 33 33 34 36 36 39 42 40 43 45 42 43 48 51 57 57 57 61 54 50 55

GFSNE_850_spd_195.txt.gz
Wind_Speed
10 14 16 17 15 16 15 17 22 20 20 16 9 7 9 10 10 10 10 11 12 15 17 18 18 18 17 18 19 21 24 24 23 24 26 26 27 25
18 16 16 14 14 14 14 15 20 22 14 17 11 11 11 6 6 9 10 9 11 12 15 18 21 22 23 24 22 20 22 24 25 26 26 24 24 24
19 15 14 13 13 14 14 14 16 19 17 13 11 8 5 4 7 9 10 10 11 13 16 18 19 21 23 23 23 24 23 23 26 26 26 27 26 26
17 14 15 15 13 13 13 14 13 13 13 13 10 5 5 6 8 9 11 11 12 14 16 19 18 21 22 24 23 24 25 24 25 25 26 27 29 32
19 19 19 18 15 15 14 13 12 11 11 9 9 9 8 9 9 10 11 12 14 16 17 16 20 22 22 25 26 26 26 23 20 24 29 31 30 29
17 18 18 13 12 14 13 11 11 12 12 11 10 7 7 9 12 13 14 16 17 18 19 19 21 21 23 25 27 26 24 25 28 31 33 29 27 27
18 16 14 14 13 13 10 10 11 11 9 8 6 3 6 10 14 17 19 22 21 18 24 23 26 26 27 27 25 25 26 28 29 27 22 26 25 27
16 14 13 14 14 11 9 10 9 8 7 4 2 4 8 13 15 18 20 24 25 22 31 28 30 29 29 27 28 29 27 24 18 24 31 32 29 29
14 13 14 13 10 10 8 10 7 5 4 1 2 6 11 14 16 17 18 20 23 26 32 36 30 30 32 33 32 27 18 15 28 29 31 32 33 32
14 13 11 8 8 7 8 7 6 4 1 3 6 10 12 13 15 17 20 23 24 24 29 35 32 38 39 34 24 20 20 31 30 30 31 32 34 34
15 14 10 8 8 8 7 6 5 3 3 6 9 11 11 12 15 18 20 24 28 29 25 25 36 42 42 31 24 22 36 35 35 34 33 33 34 34
18 15 12 10 8 7 5 5 5 5 6 8 9 9 10 12 14 16 20 22 24 28 18 32 34 37 29 30 35 38 42 40 40 37 35 35 32 35
16 15 14 12 9 7 6 6 5 6 8 9 10 10 12 13 13 17 18 18 19 22 25 24 34 33 29 40 42 45 42 46 44 42 38 35 36 33
16 13 11 10 8 8 8 8 7 8 9 10 11 12 13 13 16 18 18 18 19 22 24 23 27 28 32 41 46 48 48 45 45 43 40 45 44 42
12 10 10 9 10 9 10 9 9 8 9 11 13 14 14 18 21 19 20 21 21 21 20 20 23 28 30 36 45 49 49 49 40 44 49 49 50 47
14 11 11 11 10 10 9 8 9 11 12 14 15 16 19 21 19 22 25 24 26 25 21 23 27 30 33 35 37 45 42 43 50 50 52 53 49 46
14 13 13 11 11 9 9 10 12 13 14 16 18 20 22 20 22 25 24 25 28 30 31 31 30 31 32 32 37 38 43 45 50 53 52 54 52 48
14 13 12 12 10 10 10 11 12 14 16 18 20 21 21 22 26 25 25 28 30 31 35 35 36 38 37 32 28 34 41 48 52 51 51 52 54 49
13 13 12 12 12 13 13 14 15 17 19 20 21 20 21 23 25 28 29 29 30 34 36 35 35 35 36 41 38 32 43 47 51 52 50 51 54 56
15 14 15 15 15 15 15 17 18 19 21 21 19 20 22 26 28 29 28 30 33 36 37 35 35 33 33 41 50 50 44 44 43 49 51 52 55 52
16 15 13 13 14 16 18 19 20 21 21 20 21 23 26 28 29 28 30 32 34 35 38 38 36 35 37 39 41 51 51 44 37 40 46 51 55 54
17 14 14 16 19 19 19 20 22 22 20 22 25 25 27 27 28 30 32 34 34 35 37 38 38 37 36 34 44 49 54 52 45 44 39 38 46 47
16 16 16 18 19 20 22 24 23 22 24 26 25 27 26 27 29 30 32 32 33 35 36 38 38 37 42 41 41 47 48 52 53 55 53 47 46 46

GFSNE_850_spd_198.txt.gz
Wind_Speed
18 15 13 11 10 13 16 26 26 19 21 19 14 11 8 8 8 4 4 4 2 4 6 7 7 7 8 8 11 13 14 15 16 18 19 21 23 24
13 10 12 14 16 15 22 26 26 25 20 25 19 15 9 9 8 6 5 4 5 8 8 10 10 11 12 12 11 12 14 16 18 20 22 24 25 26
18 21 21 24 22 23 21 20 22 24 25 24 20 13 12 12 11 9 6 5 7 6 8 9 10 12 14 16 16 17 17 16 17 18 21 24 26 28
32 27 21 20 20 20 18 17 20 23 23 24 20 18 16 16 14 10 7 8 7 9 8 8 11 13 13 15 17 18 19 19 18 20 21 23 25 28
18 18 21 19 17 15 17 18 18 19 20 21 21 19 17 14 12 11 9 7 9 9 6 8 11 12 15 17 18 19 19 20 22 23 23 23 24 27
20 19 16 15 19 19 17 15 15 15 16 18 18 17 15 14 13 11 9 8 9 8 6 10 13 14 15 16 17 18 20 22 24 25 25 21 23 25
20 18 20 18 17 16 15 13 13 13 14 14 15 15 14 12 10 10 11 7 9 8 7 13 15 16 14 15 18 19 20 22 22 22 21 26 30 31
17 21 19 18 16 16 14 13 13 13 14 14 14 12 8 9 9 9 12 12 11 13 20 14 20 17 17 18 19 20 20 20 18 20 26 28 30 31
19 17 17 17 13 13 13 12 13 14 13 11 10 7 7 10 10 10 12 13 15 19 24 22 19 21 21 22 23 21 17 16 22 23 26 28 30 33
15 17 14 13 13 11 10 11 11 11 10 8 6 6 9 9 12 13 14 16 16 17 22 20 23 29 26 24 22 19 16 23 23 26 26 27 30 33
15 13 11 10 10 9 10 10 9 7 6 6 6 8 10 12 13 13 15 18 21 20 15 20 28 35 34 24 21 20 30 26 26 26 27 30 32 33
16 13 11 9 9 9 8 8 8 7 8 8 9 10 11 12 13 13 15 16 18 17 14 28 28 31 28 28 29 35 35 31 32 32 31 32 31 33
15 15 14 12 10 9 9 9 9 9 9 10 11 11 11 11 12 13 15 15 17 19 21 24 28 28 27 35 38 40 36 38 36 35 33 31 34 33
16 15 15 13 12 11 10 9 9 10 11 11 12 12 10 11 13 15 14 15 18 20 20 21 25 25 27 35 42 42 42 41 38 34 32 40 39 40
15 14 14 13 12 11 10 11 11 11 11 11 11 10 11 13 15 15 16 19 18 17 18 19 21 25 28 34 40 42 43 45 31 37 42 44 45 45
16 15 14 13 12 12 12 11 10 10 10 10 10 12 13 15 16 19 20 21 23 20 18 19 22 27 32 33 36 41 37 39 44 43 47 49 48 45
16 16 15 14 13 12 12 11 11 11 12 12 14 16 17 18 19 19 21 22 24 27 25 23 25 28 31 34 38 35 37 41 42 46 49 53 51 49
18 16 15 15 14 14 13 11 11 13 14 15 17 19 20 21 20 20 22 24 26 27 29 30 31 34 36 37 31 31 37 41 45 46 47 51 57 51
19 17 16 15 14 14 12 13 14 15 16 17 19 21 21 21 22 24 25 26 27 29 30 30 31 31 37 43 42 31 34 43 45 49 47 48 53 54
18 17 15 15 16 15 15 15 16 17 18 20 22 21 21 23 25 27 27 27 29 31 33 31 30 29 32 39 46 48 37 39 42 47 49 48 51 50
16 17 16 16 16 15 14 15 16 17 20 22 21 21 23 25 27 27 27 29 31 32 35 34 32 31 32 36 42 48 47 40 39 38 43 46 51 55
18 18 17 16 16 15 15 16 18 20 22 23 23 24 25 26 27 28 30 32 32 33 34 35 34 33 33 33 40 48 51 49 44 44 33 35 40 41
18 18 19 18 14 13 15 17 20 23 23 24 24 25 25 26 28 30 31 31 32 33 34 36 35 34 33 37 40 46 49 51 51 52 51 43 40 41

GFSNE_850_spd_201.txt.gz
Wind_Speed
20 20 20 20 17 17 18 25 28 18 21 18 18 17 12 9 7 7 7 6 7 3 3 3 4 4 5 6 7 8 9 9 11 12 14 16 17 18
21 16 21 15 14 10 11 19 23 18 20 26 27 20 15 13 10 8 8 7 8 6 6 5 6 5 6 8 9 10 11 12 13 15 17 19 20 20
24 23 21 18 16 18 18 20 19 16 21 22 27 20 17 15 13 11 10 9 10 10 10 9 7 7 8 9 10 10 11 13 15 17 18 20 22 23
26 24 22 22 25 31 35 26 16 27 27 28 28 24 21 18 15 12 11 11 12 12 12 11 10 10 10 11 13 15 16 16 17 17 18 20 22 23
30 31 29 36 31 15 12 19 21 22 24 28 30 27 23 19 17 15 14 13 13 13 12 13 10 12 12 13 15 17 16 19 20 20 20 21 23 23
27 27 20 12 12 14 14 14 15 16 21 25 24 24 21 18 17 15 14 13 13 13 12 12 12 12 15 15 15 16 19 19 19 19 19 22 24 24
16 13 13 13 17 16 15 16 16 16 18 21 23 22 20 17 16 14 13 13 12 12 11 12 16 14 14 13 17 18 17 17 15 15 20 24 27 29
17 19 20 19 13 15 16 16 14 15 17 20 20 20 18 15 13 12 11 10 8 8 12 13 17 15 13 16 17 16 15 14 14 17 23 24 27 29
17 17 17 13 15 16 15 15 15 15 15 15 17 17 15 13 13 9 9 9 11 12 14 17 18 14 16 18 17 15 13 11 16 21 23 26 28 30
13 11 11 13 15 14 14 15 13 13 13 14 14 13 11 10 7 7 9 9 11 15 16 19 18 22 21 20 17 11 7 17 20 24 25 28 30 32
13 13 10 11 13 13 13 14 13 12 12 13 11 8 7 5 6 8 10 12 12 15 18 17 22 31 27 18 12 9 22 21 25 25 28 30 31 33
14 13 12 12 10 11 12 12 12 12 11 9 7 6 6 7 8 9 11 13 15 14 13 20 25 25 20 20 14 28 27 27 27 28 29 31 32 33
15 13 13 11 10 11 11 11 11 11 9 8 8 7 8 9 10 12 13 15 16 16 17 21 23 26 26 31 33 34 30 36 34 32 32 32 29 34
15 13 12 11 11 12 11 11 10 9 9 10 9 9 10 10 11 13 15 15 16 18 19 20 24 25 27 33 38 39 39 38 37 35 32 36 38 37
13 12 11 11 13 13 12 11 10 11 11 11 10 10 10 11 12 14 15 16 16 18 18 19 22 24 27 32 39 42 43 43 35 35 39 40 42 43
17 14 13 13 13 13 12 11 11 11 10 10 10 10 10 11 13 15 16 19 19 18 18 20 22 26 31 33 36 40 37 37 38 38 40 44 45 44
17 16 16 15 13 12 11 11 11 11 9 9 9 10 12 13 15 16 18 19 22 25 24 22 24 28 31 34 37 36 35 35 38 39 44 49 48 48
18 16 15 13 13 12 12 11 11 10 9 10 12 13 15 16 16 17 19 21 24 26 27 27 30 34 37 37 33 32 37 36 37 43 43 48 54 51
19 16 14 12 12 13 12 12 11 9 11 12 13 15 17 17 18 19 21 24 26 28 28 29 30 32 37 43 46 34 31 41 41 46 46 48 53 56
21 17 14 14 14 14 13 12 10 11 12 14 14 17 18 18 19 21 23 26 28 30 32 31 30 30 32 38 46 50 41 39 40 47 50 50 52 53
17 16 15 15 15 14 13 11 10 11 13 15 17 19 19 20 22 23 25 27 30 32 34 34 32 31 34 37 43 48 46 41 39 41 44 48 52 56
12 13 13 14 14 13 12 10 10 11 14 17 19 19 20 22 24 25 27 30 30 33 35 35 34 34 34 35 42 46 49 48 44 43 41 36 39 42
10 13 15 15 14 13 11 9 11 14 17 18 19 20 22 23 24 26 28 30 32 34 34 37 36 34 35 36 39 45 49 50 49 51 50 45 37 38

GFSNE_850_spd_207.txt.gz
Wind_Speed
39 37 36 38 42 32 27 27 27 18 23 27 24 28 24 20 15 12 11 9 8 8 10 11 11 10 11 10 10 9 9 7 7 6 6 5 6 6
45 38 38 38 41 37 33 31 30 28 24 29 35 30 29 23 17 14 13 11 9 11 11 11 11 11 11 11 11 10 9 8 8 7 7 7 8 9
40 42 41 36 36 37 34 30 26 31 32 28 35 30 30 27 21 18 18 15 14 12 11 10 11 11 10 11 11 10 10 9 9 8 10 10 11 12
39 41 35 31 29 29 26 27 32 32 30 31 34 33 31 27 24 21 22 17 16 15 13 11 12 11 11 11 11 11 12 11 11 12 12 13 13 13
32 33 35 33 36 36 36 34 33 28 23 22 26 31 31 30 27 25 23 19 17 16 14 13 13 14 13 12 13 14 13 13 13 14 15 15 15 16
30 28 28 29 27 25 27 28 26 25 26 25 24 28 29 28 26 26 23 20 17 18 15 15 15 15 13 13 15 16 14 14 16 17 17 17 18 18
23 22 21 21 23 26 25 24 24 24 24 24 24 24 26 25 26 27 24 21 18 18 18 17 16 17 16 15 16 16 16 17 18 19 19 20 20 21
20 20 21 21 22 23 22 19 17 16 19 19 20 21 22 24 29 28 25 19 17 19 18 17 16 16 16 16 17 17 17 19 20 19 19 20 21 23
19 20 20 17 17 17 18 16 14 14 13 14 16 18 21 26 26 24 22 18 15 14 10 13 14 15 16 17 17 17 18 20 21 19 17 20 23 25
14 15 17 17 16 14 14 15 15 15 14 15 16 17 20 21 22 20 17 15 14 13 13 12 13 13 13 15 16 17 19 21 19 15 19 24 26 27
16 17 15 11 12 13 14 15 15 14 15 14 15 17 18 19 18 18 16 13 9 10 10 10 10 10 12 14 14 13 13 13 15 20 27 28 28 29
16 15 13 12 12 12 11 11 13 15 13 15 16 17 15 15 14 14 11 10 9 7 8 9 9 10 7 9 8 6 15 19 22 26 27 30 29 28
17 17 15 13 12 11 11 11 10 12 14 14 14 14 13 12 11 9 9 8 5 6 9 10 10 13 12 15 16 16 19 20 25 26 28 28 25 23
15 15 14 13 11 11 12 12 12 13 15 12 11 11 9 9 9 9 9 7 4 7 10 11 12 13 17 20 21 22 24 26 28 29 27 26 29 30
16 13 13 12 12 12 12 12 11 10 9 10 11 9 8 9 8 7 6 5 7 9 10 12 13 16 18 19 22 25 30 31 27 25 30 29 31 30
17 16 14 12 13 12 11 11 11 11 9 9 9 10 10 9 6 5 5 7 9 11 12 14 16 18 20 22 23 26 26 24 29 29 31 32 31 31
22 17 14 13 13 13 13 11 10 10 11 11 9 8 7 7 7 7 8 9 10 12 13 16 18 21 23 25 27 24 22 22 24 25 29 34 33 32
18 14 13 12 11 11 12 14 13 12 10 8 7 7 7 7 7 8 9 10 12 13 15 17 20 23 23 22 24 21 23 22 23 26 29 33 34 30
16 15 13 12 14 15 15 12 10 9 8 7 7 8 7 7 7 9 10 12 13 15 16 19 21 21 21 21 20 27 25 25 29 31 28 28 34 36
18 16 14 13 14 14 14 13 11 10 9 9 8 7 7 8 10 10 11 14 15 16 19 20 21 21 22 25 27 32 33 32 29 30 31 31 38 45
20 19 17 15 15 14 14 14 13 12 10 9 8 8 9 10 11 13 14 16 17 19 21 20 21 28 29 32 34 33 27 31 33 32 33 32 37 49
17 17 17 17 16 15 15 15 15 14 12 10 9 9 10 12 14 15 16 17 19 20 23 26 28 29 30 30 32 34 31 31 34 36 32 32 31 36
15 16 17 17 16 15 14 15 15 14 12 11 10 11 13 14 15 16 17 19 21 24 26 29 29 29 29 29 31 34 35 35 33 35 33 30 35 37